Location: Bethera
(33.2010°N, 79.7880°W)
Time: 15:07:55
(UTC-04:00)

Amateur Radio Satellites - All Passes

Search period start: 29 May 2016 14:37
Search period end: 30 May 2016 14:37
Location: Bethera, 33.2010°N, 79.7880°W

Satellite Date Start Highest point End Downlink Frequencies (MHz)
Time Altitude Azimuth
Cosmos 2491 29 May 14:41:07 14:48:04 26° 72° (ENE) 14:54:56 435.465 / 435.565
AIST 2 29 May 15:08:26 15:10:02 12° 311° (NW) 15:11:37 435.215
Gurwin Techsat 1B 29 May 15:10:48 15:15:56 50° 260° (W) 15:21:05 435.225
ITAMSAT 1 29 May 15:17:46 15:22:54 71° 75° (ENE) 15:28:04 435.822/435.867
TISAT 1 29 May 15:24:03 15:27:00 19° 291° (WNW) 15:29:56 437.305
SWISSCUBE 29 May 15:26:35 15:31:23 71° 101° (ESE) 15:36:10 437.505
ITUPSAT 1 29 May 15:33:51 15:38:41 75° 102° (ESE) 15:43:29 437.325
BEESAT 29 May 15:56:07 16:00:51 61° 285° (WNW) 16:05:33 436.000
AO-85 29 May 16:12:06 16:16:11 36° 248° (WSW) 16:19:56 145.980
KKS-1 29 May 16:18:46 16:22:21 24° 97° (E) 16:25:55 437.445
AO-7 29 May 16:25:54 16:34:11 81° 254° (WSW) 16:42:33 29.400- 29.500
RS-15 29 May 16:29:02 16:39:01 39° 106° (ESE) 16:49:26 29.354- 29.394
YUBILEINY 29 May 16:29:58 16:38:32 67° 92° (E) 16:47:08 435.215
Cosmos 2491 29 May 16:36:48 16:45:17 58° 269° (W) 16:53:44 435.465 / 435.565
HORYU 2 29 May 16:39:14 16:42:50 25° 70° (ENE) 16:46:28 437.375
STARS 29 May 16:48:41 16:52:19 25° 97° (E) 16:55:56 437.465
MOZHAYETS 4 29 May 16:48:41 16:53:05 42° 99° (E) 16:57:28
ITAMSAT 1 29 May 17:02:08 17:02:47 10° 268° (W) 17:03:26 435.822/435.867
SWISSCUBE 29 May 17:07:55 17:08:32 10° 296° (WNW) 17:09:08 437.505
BRITE-PL 29 May 17:46:25 17:50:35 22° 68° (ENE) 17:54:47 437.365/2234.400
NOAA 15 29 May 17:50:20 17:54:51 29° 69° (ENE) 17:59:22 137.62
KKS-1 29 May 17:55:14 17:58:47 24° 290° (WNW) 18:02:19 437.445
GOMX 1 29 May 18:01:51 18:04:26 14° 66° (ENE) 18:07:00 467.674
Cubesat XI-IV 29 May 18:03:12 18:07:31 26° 68° (ENE) 18:11:49 437.490
Cosmos 2504 29 May 18:06:25 18:13:35 79° 94° (E) 18:21:08 435.465 / 435.565
LilacSat-2 29 May 18:15:32 18:18:34 23° 72° (ENE) 18:21:35 437.200
HORYU 2 29 May 18:15:49 18:19:18 23° 264° (W) 18:22:47 437.375
NOAA 18 29 May 18:18:14 18:23:26 47° 71° (ENE) 18:28:38 137.9125
CUBESAT XI-V 29 May 18:19:49 18:24:19 44° 99° (E) 18:28:46 437.345
STARS 29 May 18:25:10 18:28:30 22° 291° (WNW) 18:31:51 437.465
AO-7 29 May 18:25:23 18:27:55 12° 269° (W) 18:30:27 29.400- 29.500
MOZHAYETS 4 29 May 18:27:06 18:29:52 16° 292° (WNW) 18:32:36
YUBILEINY 29 May 18:29:41 18:35:56 22° 289° (WNW) 18:42:14 435.215
DOVE 4 29 May 18:39:33 18:42:16 15° 67° (ENE) 18:44:57 437.250
RS-15 29 May 18:40:01 18:50:57 54° 306° (NW) 19:02:34 29.354- 29.394
CUTE-I 29 May 18:47:37 18:52:53 73° 75° (ENE) 18:58:11 437.470
PCSat 29 May 19:20:15 19:25:38 63° 63° (ENE) 19:30:58 145.827
HO-68 29 May 19:22:29 19:27:41 22° 62° (ENE) 19:32:52 435.675
BRITE-PL 29 May 19:23:16 19:28:38 46° 262° (W) 19:34:06 437.365/2234.400
O/OREOS (USA 219) 29 May 19:27:44 19:31:55 37° 67° (ENE) 19:36:03 437.305
NOAA 15 29 May 19:29:58 19:34:30 28° 263° (W) 19:39:03 137.62
GOMX 1 29 May 19:36:26 19:41:53 69° 259° (WSW) 19:47:17 467.674
Cubesat XI-IV 29 May 19:42:41 19:47:23 32° 262° (W) 19:52:08 437.490
AUBIESAT-1 29 May 19:46:36 19:49:55 24° 68° (ENE) 19:53:05 437.475
SEEDS 29 May 19:49:53 19:51:25 12° 67° (ENE) 19:52:57 437.485
CANX-2 29 May 19:50:04 19:53:09 20° 70° (ENE) 19:56:14 2200.000
LilacSat-2 29 May 19:50:11 19:52:47 18° 265° (W) 19:55:23 437.200
PHONESAT 2.4 29 May 19:54:03 19:55:30 13° 141° (SE) 19:56:56 2401.200-2431.200
M-CUBED/EXP-1 PRIME 29 May 19:54:40 19:58:36 39° 70° (ENE) 20:02:16 437.505
BEESAT 3 29 May 19:55:02 19:57:40 17° 52° (NE) 20:00:16 437.485
CUBESAT XI-V 29 May 19:58:34 20:01:17 15° 293° (WNW) 20:04:00 437.345
NOAA 18 29 May 20:00:36 20:04:15 18° 265° (W) 20:07:55 137.9125
Cosmos 2504 29 May 20:04:08 20:07:52 14° 293° (WNW) 20:11:42 435.465 / 435.565
DOVE 4 29 May 20:14:19 20:19:29 57° 260° (W) 20:24:28 437.250
CUTE 1.7 + AOD 2 29 May 20:16:01 20:19:50 35° 73° (ENE) 20:23:42 437.475
ISS 29 May 20:26:05 20:29:17 55° 134° (SE) 20:32:29 145.825
CINEMA 3 29 May 20:28:45 20:33:27 60° 75° (ENE) 20:37:56 145.822/145.860
COMPASS 1 29 May 20:29:39 20:33:03 25° 72° (ENE) 20:36:29 437.405
AAUSAT CUBESAT 2 29 May 20:30:19 20:33:21 20° 70° (ENE) 20:36:23 437.432
GONETS M04 29 May 20:31:33 20:33:53 11° 77° (ENE) 20:36:12
STRAND 1 29 May 20:32:00 20:37:10 79° 103° (ESE) 20:42:19 437.568
CUTE-I 29 May 20:32:27 20:33:22 10° 269° (W) 20:34:15 437.470
PRISM 29 May 20:36:34 20:37:47 11° 93° (E) 20:38:58 437.425
AIST 1 29 May 20:43:25 20:46:33 19° 88° (E) 20:49:42
ZACube-1 29 May 20:50:35 20:51:59 11° 68° (ENE) 20:53:23 437.345
RS-15 29 May 21:00:29 21:07:10 16° 335° (NNW) 21:14:01 29.354- 29.394
BEESAT 2 29 May 21:01:23 21:05:17 51° 59° (ENE) 21:09:09 435.950
CUBEBUG 2 29 May 21:03:18 21:07:25 40° 74° (ENE) 21:11:25 437.445
PCSat 29 May 21:05:53 21:08:23 13° 257° (WSW) 21:10:54 145.827
HO-68 29 May 21:07:46 21:14:48 61° 258° (WSW) 21:21:52 435.675
O/OREOS (USA 219) 29 May 21:08:25 21:10:55 15° 261° (W) 21:13:25 437.305
AUBIESAT-1 29 May 21:21:12 21:24:18 20° 258° (WSW) 21:27:17 437.475
SEEDS 29 May 21:22:41 21:26:40 45° 261° (W) 21:30:41 437.485
FUNcube-1 29 May 21:24:55 21:28:32 28° 72° (ENE) 21:32:07 145.935
CANX-2 29 May 21:25:18 21:28:49 26° 264° (W) 21:32:21 2200.000
UWE-3 29 May 21:26:50 21:31:01 52° 75° (ENE) 21:35:07 435.000/436.395/437.385
PHONESAT 2.4 29 May 21:28:46 21:31:54 87° 333° (NNW) 21:35:02 2401.200-2431.200
M-CUBED/EXP-1 PRIME 29 May 21:31:08 21:33:09 13° 260° (W) 21:35:07 437.505
BEESAT 3 29 May 21:31:52 21:35:25 32° 247° (WSW) 21:38:56 437.485
CUTE 1.7 + AOD 2 29 May 21:53:30 21:55:46 14° 267° (W) 21:58:02 437.475
AIST 2 29 May 21:54:18 21:55:54 12° 49° (NE) 21:57:30 435.215
ISS 29 May 22:04:05 22:05:57 14° 329° (NNW) 22:07:49 145.825
Oscar 11 29 May 22:04:33 22:08:49 73° 258° (WSW) 22:13:07 145.826/435.025
AAUSAT CUBESAT 2 29 May 22:05:15 22:08:38 25° 264° (W) 22:12:04 437.432
COMPASS 1 29 May 22:05:31 22:08:32 20° 265° (W) 22:11:36 437.405
PRISM 29 May 22:09:17 22:13:16 44° 286° (WNW) 22:17:12 437.425
CINEMA 3 29 May 22:09:58 22:10:46 10° 267° (W) 22:11:35 145.822/145.860
HUMSAT D 29 May 22:12:03 22:15:17 23° 71° (ENE) 22:18:32 437.325/437.525
STRAND 1 29 May 22:14:45 22:15:37 10° 297° (WNW) 22:16:29 437.568
DELFI C3 29 May 22:14:55 22:18:49 64° 76° (ENE) 22:22:45 145.870
CUSAT 1 29 May 22:17:30 22:23:28 26° 69° (ENE) 22:28:30 437.405
AIST 1 29 May 22:20:12 22:23:55 27° 282° (WNW) 22:27:39
GONETS M04 29 May 22:20:25 22:29:12 80° 94° (E) 22:37:59
ZACube-1 29 May 22:23:46 22:27:51 46° 260° (W) 22:31:53 437.345
DANDE 29 May 22:32:42 22:38:33 21° 66° (ENE) 22:43:52 436.750
Cosmos 2499 29 May 22:34:02 22:40:59 55° 91° (E) 22:48:26 435.465 / 435.565
CUBEBUG 2 29 May 22:42:02 22:44:08 13° 266° (W) 22:46:13 437.445
ANTELSAT 29 May 22:57:14 23:00:48 24° 97° (E) 23:04:24 437.575/2403.000
FUNcube-1 29 May 23:01:54 23:04:46 18° 265° (W) 23:07:36 145.935
PHONESAT 2.4 29 May 23:06:14 23:08:54 24° 350° (N) 23:11:33 2401.200-2431.200
SO-50 29 May 23:15:40 23:19:14 20° 109° (ESE) 23:22:49 436.795
AISAT 29 May 23:19:07 23:22:12 19° 68° (ENE) 23:25:16 437.250
RS-15 29 May 23:23:00 23:27:34 12° 14° (NNE) 23:32:09 29.354- 29.394
AIST 2 29 May 23:30:39 23:34:43 57° 244° (WSW) 23:38:46 435.215
HUMSAT D 29 May 23:47:46 23:50:49 20° 264° (W) 23:53:53 437.325/437.525
50 SAT 29 May 23:51:09 23:54:34 42° 74° (ENE) 23:58:02 437.505
UNISAT 6 29 May 23:52:04 23:56:22 69° 285° (WNW) 00:00:45 437.425
TIGRISAT 29 May 23:58:48 00:03:04 61° 284° (WNW) 00:07:24 435.000
CUSAT 1 29 May 23:59:01 00:05:51 45° 271° (W) 00:11:23 437.405
DUCHIFAT 1 30 May 00:02:19 00:05:21 19° 95° (E) 00:08:22 145.980
DX 1 30 May 00:03:44 00:07:56 47° 74° (ENE) 00:12:09 434.975-435.025
CUBEBUG 1 30 May 00:03:56 00:08:18 60° 75° (ENE) 00:12:40 437.445
ESTCUBE 1 30 May 00:05:48 00:10:18 86° 254° (WSW) 00:14:51 437.505/2401.250
DANDE 30 May 00:13:59 00:22:17 73° 265° (W) 00:29:16 436.750
VELOX 1 30 May 00:17:24 00:21:52 85° 73° (ENE) 00:26:21 145.980
SPROUT 30 May 00:20:10 00:23:58 32° 72° (ENE) 00:27:46 437.525
GONETS M04 30 May 00:21:22 00:26:53 18° 291° (WNW) 00:32:25
Cosmos 2499 30 May 00:29:08 00:34:33 22° 289° (WNW) 00:40:15 435.465 / 435.565
ANTELSAT 30 May 00:33:59 00:37:22 23° 289° (WNW) 00:40:49 437.575/2403.000
TISAT 1 30 May 00:37:18 00:39:06 12° 67° (ENE) 00:40:53 437.305
POPSAT HIP 1 30 May 00:42:25 00:46:36 71° 101° (E) 00:50:47 437.405
QB50P1 30 May 00:42:33 00:46:45 73° 102° (ESE) 00:50:56 145.935-145.965
PHONESAT 2.4 30 May 00:43:41 00:46:13 22° 7° (N) 00:48:45 2401.200-2431.200
QB50P2 30 May 00:45:45 00:49:58 85° 103° (ESE) 00:54:11 145.880/145.840
UKube-1 30 May 00:48:12 00:52:28 60° 258° (WSW) 00:56:46 .
POLYITAN 1 30 May 00:48:14 00:52:26 87° 102° (ESE) 00:56:39 437.675
AISAT 30 May 00:54:23 00:58:23 32° 262° (W) 01:02:25 437.250
SO-50 30 May 00:54:51 00:59:26 39° 304° (WNW) 01:04:01 436.795
NANOSAT C BR1 30 May 00:59:34 01:03:44 72° 284° (WNW) 01:07:53 145.865
JAS-2 30 May 01:29:18 01:35:49 37° 95° (E) 01:41:37 435.910
RS-15 30 May 01:34:34 01:45:34 36° 46° (NE) 01:56:28 29.354- 29.394
DUCHIFAT 1 30 May 01:37:30 01:40:59 26° 289° (WNW) 01:44:27 145.980
DX 1 30 May 01:42:46 01:44:19 12° 267° (W) 01:45:52 434.975-435.025
BUGSAT 1 30 May 01:44:40 01:48:32 46° 286° (WNW) 01:52:22 437.445
SPROUT 30 May 01:57:08 01:59:56 17° 265° (W) 02:02:44 437.525
DANDE 30 May 02:01:49 02:03:23 11° 283° (WNW) 02:04:55 436.750
TISAT 1 30 May 02:10:17 02:14:19 44° 260° (W) 02:18:22 437.305
PHONESAT 2.4 30 May 02:20:14 02:23:19 59° 23° (NNE) 02:26:25 2401.200-2431.200
SWISSCUBE 30 May 02:28:49 02:33:22 49° 73° (ENE) 02:37:58 437.505
ITUPSAT 1 30 May 02:36:20 02:40:57 52° 74° (ENE) 02:45:35 437.325
YUBILEINY 30 May 02:46:14 02:53:19 27° 73° (ENE) 03:00:22 435.215
Oscar 19 30 May 02:47:36 02:52:47 87° 103° (ESE) 02:57:54 437.125/150
BEESAT 30 May 02:58:01 03:02:45 86° 259° (W) 03:07:32 436.000
ISS 30 May 02:58:23 02:59:45 12° 30° (NNE) 03:01:08 145.825
KKS-1 30 May 03:13:59 03:16:20 14° 67° (ENE) 03:18:40 437.445
JAS-2 30 May 03:14:21 03:20:38 33° 294° (WNW) 03:26:19 435.910
Gurwin Techsat 1B 30 May 03:31:04 03:36:24 88° 290° (WNW) 03:41:44 435.225
ITAMSAT 1 30 May 03:35:08 03:39:55 35° 98° (E) 03:44:40 435.822/435.867
Cosmos 2491 30 May 03:36:42 03:44:21 34° 86° (E) 03:51:58 435.465 / 435.565
STARS 30 May 03:42:28 03:44:52 14° 67° (ENE) 03:47:14 437.465
RS-15 30 May 03:46:42 03:58:54 68° 248° (WSW) 04:10:54 29.354- 29.394
MOZHAYETS 4 30 May 03:46:53 03:50:33 24° 70° (ENE) 03:54:13
PHONESAT 2.4 30 May 03:57:32 03:59:51 19° 216° (SW) 04:02:09 2401.200-2431.200
Cosmos 2504 30 May 04:03:48 04:10:26 24° 72° (ENE) 04:17:13 435.465 / 435.565
SWISSCUBE 30 May 04:09:09 04:11:23 13° 267° (W) 04:13:38 437.505
JUGNU 30 May 04:10:40 04:11:56 11° 163° (SSE) 04:13:14 437.505
ITUPSAT 1 30 May 04:17:04 04:19:01 12° 267° (W) 04:21:01 437.325
AO-7 30 May 04:32:29 04:40:28 46° 102° (ESE) 04:48:23 29.400- 29.500
ISS 30 May 04:33:17 04:36:32 74° 225° (SW) 04:39:46 145.825
AO-85 30 May 04:41:50 04:45:39 20° 108° (ESE) 04:49:28 145.980
YUBILEINY 30 May 04:41:58 04:50:27 57° 270° (W) 04:58:58 435.215
KKS-1 30 May 04:48:13 04:52:29 44° 261° (W) 04:56:45 437.445
ITAMSAT 1 30 May 05:15:05 05:19:07 23° 292° (WNW) 05:23:10 435.822/435.867
STARS 30 May 05:16:40 05:20:50 41° 261° (W) 05:24:59 437.465
CUBESAT XI-V 30 May 05:19:13 05:23:06 27° 71° (ENE) 05:27:01 437.345
MOZHAYETS 4 30 May 05:23:50 05:27:34 25° 264° (W) 05:31:20
Cosmos 2491 30 May 05:32:34 05:40:51 44° 282° (WNW) 05:49:11 435.465 / 435.565
Cosmos 2504 30 May 05:55:46 06:04:14 64° 268° (W) 06:12:59 435.465 / 435.565
JUGNU 30 May 05:56:08 06:00:16 19° 171° (S) 06:04:25 437.505
RS-15 30 May 06:06:03 06:09:03 11° 265° (W) 06:12:03 29.354- 29.394
HORYU 2 30 May 06:09:41 06:14:08 88° 288° (WNW) 06:18:35 437.375
NOAA 15 30 May 06:10:51 06:13:46 15° 93° (E) 06:16:40 137.62
AO-85 30 May 06:20:32 06:25:48 49° 302° (WNW) 06:31:02 145.980
AO-7 30 May 06:25:36 06:32:55 35° 297° (WNW) 06:40:14 29.400- 29.500
Cubesat XI-IV 30 May 06:25:40 06:28:26 14° 93° (E) 06:31:11 437.490
NOAA 18 30 May 06:44:52 06:49:32 28° 97° (E) 06:54:11 137.9125
CUBESAT XI-V 30 May 06:56:36 07:00:22 24° 264° (W) 07:04:11 437.345
CUTE-I 30 May 07:09:07 07:14:10 41° 99° (E) 07:19:12 437.470
LilacSat-2 30 May 07:26:16 07:30:01 63° 100° (E) 07:33:47 437.200
BRITE-PL 30 May 07:33:10 07:38:07 89° 265° (W) 07:42:37 437.365/2234.400
STRAND 1 30 May 07:43:35 07:48:38 72° 75° (ENE) 07:53:44 437.568
GOMX 1 30 May 07:43:35 07:47:57 48° 99° (E) 07:52:03 467.674
JUGNU 30 May 07:44:10 07:48:41 22° 182° (S) 07:53:11 437.505
NOAA 15 30 May 07:48:39 07:53:47 53° 287° (WNW) 07:58:54 137.62
SRMSAT 30 May 07:55:00 07:59:01 18° 170° (S) 08:03:01 437.500
Cubesat XI-IV 30 May 08:03:32 08:08:47 57° 286° (WNW) 08:14:02 437.490
PCSat 30 May 08:17:07 08:19:57 14° 104° (ESE) 08:22:46 145.827
DOVE 4 30 May 08:18:07 08:22:17 52° 100° (E) 08:26:19 437.250
NOAA 18 30 May 08:25:19 08:30:05 31° 291° (WNW) 08:34:51 137.9125
CINEMA 3 30 May 08:28:51 08:31:34 17° 95° (E) 08:34:18 145.822/145.860
AIST 1 30 May 08:30:54 08:35:05 46° 81° (E) 08:39:12
Cosmos 2499 30 May 08:31:04 08:36:16 17° 68° (ENE) 08:41:30 435.465 / 435.565
GONETS M04 30 May 08:36:45 08:44:16 32° 74° (ENE) 08:51:44
HO-68 30 May 08:40:25 08:46:47 33° 98° (E) 08:53:07 435.675
CUTE-I 30 May 08:49:58 08:53:53 21° 293° (WNW) 08:57:48 437.470
PRISM 30 May 08:53:59 08:58:06 69° 76° (ENE) 09:02:16 437.425
CUBEBUG 2 30 May 09:00:29 09:01:36 11° 93° (E) 09:02:43 437.445
AUBIESAT-1 30 May 09:03:11 09:06:06 28° 103° (ESE) 09:09:05 437.475
SEEDS 30 May 09:10:38 09:14:37 38° 98° (E) 09:18:36 437.485
M-CUBED/EXP-1 PRIME 30 May 09:12:14 09:15:25 52° 105° (ESE) 09:18:41 437.505
CANX-2 30 May 09:13:34 09:17:51 72° 100° (E) 09:22:08 2200.000
UWE-3 30 May 09:21:55 09:24:08 14° 94° (E) 09:26:23 435.000/436.395/437.385
GOMX 1 30 May 09:23:49 09:25:29 12° 295° (WNW) 09:27:07 467.674
SO-50 30 May 09:30:11 09:34:48 60° 59° (ENE) 09:39:14 436.795
JUGNU 30 May 09:33:23 09:37:03 17° 192° (SSW) 09:40:43 437.505
O/OREOS (USA 219) 30 May 09:35:15 09:39:49 79° 290° (WNW) 09:44:23 437.305
CUTE 1.7 + AOD 2 30 May 09:40:18 09:44:33 61° 284° (WNW) 09:48:46 437.475
SRMSAT 30 May 09:43:03 09:47:34 22° 181° (S) 09:52:04 437.500
AAUSAT CUBESAT 2 30 May 09:50:46 09:54:58 67° 101° (E) 09:59:07 437.432
COMPASS 1 30 May 09:51:08 09:55:22 87° 106° (ESE) 09:59:35 437.405
ANTELSAT 30 May 09:53:35 09:55:41 13° 68° (ENE) 09:57:47 437.575/2403.000
Oscar 11 30 May 09:56:19 10:00:02 27° 97° (E) 10:03:44 145.826/435.025
PCSat 30 May 09:57:26 10:02:45 59° 298° (WNW) 10:08:08 145.827
DELFI C3 30 May 09:58:58 10:00:19 11° 93° (E) 10:01:40 145.870
DOVE 4 30 May 09:59:16 09:59:27 10° 295° (WNW) 09:59:37 437.250
CINEMA 3 30 May 10:05:10 10:08:43 28° 288° (WNW) 10:12:17 145.822/145.860
AIST 1 30 May 10:11:25 10:12:08 10° 275° (W) 10:12:52
ZACube-1 30 May 10:15:55 10:19:56 41° 99° (E) 10:24:01 437.345
Cosmos 2499 30 May 10:21:31 10:30:19 87° 265° (W) 10:39:13 435.465 / 435.565
HO-68 30 May 10:27:54 10:34:26 39° 293° (WNW) 10:40:58 435.675
GONETS M04 30 May 10:33:02 10:41:10 47° 271° (W) 10:49:19
CUBEBUG 2 30 May 10:34:23 10:38:24 45° 285° (WNW) 10:42:29 437.445
AUBIESAT-1 30 May 10:39:23 10:40:22 11° 296° (WNW) 10:41:20 437.475
UNISAT 6 30 May 10:46:35 10:50:52 59° 76° (ENE) 10:55:06 437.425
SEEDS 30 May 10:47:39 10:49:57 14° 292° (WNW) 10:52:15 437.485
BEESAT 2 30 May 10:49:51 10:53:07 25° 112° (ESE) 10:56:25 435.950
FUNcube-1 30 May 10:52:12 10:56:25 72° 283° (WNW) 11:00:42 145.935
TIGRISAT 30 May 10:53:03 10:57:23 67° 76° (ENE) 11:01:39 435.000
UWE-3 30 May 10:56:48 11:00:41 37° 286° (WNW) 11:04:38 435.000/436.395/437.385
CUSAT 1 30 May 11:12:50 11:18:22 33° 86° (E) 11:24:53 437.405
SO-50 30 May 11:13:35 11:14:38 11° 254° (WSW) 11:15:42 436.795
BEESAT 3 30 May 11:17:58 11:21:53 71° 299° (WNW) 11:25:49 437.485
ANTELSAT 30 May 11:27:53 11:32:01 42° 261° (W) 11:36:07 437.575/2403.000
POPSAT HIP 1 30 May 11:30:58 11:34:39 29° 72° (ENE) 11:38:19 437.405
QB50P1 30 May 11:31:01 11:34:44 30° 72° (ENE) 11:38:26 145.935-145.965
DELFI C3 30 May 11:31:32 11:35:19 40° 286° (WNW) 11:39:06 145.870
SRMSAT 30 May 11:32:17 11:36:06 18° 191° (S) 11:39:55 437.500
Oscar 11 30 May 11:32:45 11:35:58 20° 290° (WNW) 11:39:10 145.826/435.025
HUMSAT D 30 May 11:33:54 11:38:05 82° 102° (ESE) 11:42:19 437.325/437.525
QB50P2 30 May 11:34:15 11:38:06 35° 73° (ENE) 11:41:58 145.880/145.840
DANDE 30 May 11:35:52 11:39:52 20° 81° (E) 11:44:35 436.750
POLYITAN 1 30 May 11:36:43 11:40:35 36° 73° (ENE) 11:44:27 437.675
JAS-2 30 May 11:39:08 11:42:10 13° 57° (ENE) 11:45:14 435.910
NANOSAT C BR1 30 May 11:47:20 11:51:22 45° 74° (ENE) 11:55:23 145.865
ZACube-1 30 May 11:53:51 11:55:51 13° 292° (WNW) 11:57:52 437.345
CUBEBUG 1 30 May 11:58:14 12:00:46 15° 94° (E) 12:03:16 437.445
DX 1 30 May 11:58:30 11:59:51 11° 93° (E) 12:01:11 434.975-435.025
ESTCUBE 1 30 May 12:02:59 12:06:52 27° 97° (E) 12:10:43 437.505/2401.250
VELOX 1 30 May 12:12:32 12:15:57 22° 96° (E) 12:19:21 145.980
Cosmos 2499 30 May 12:18:00 12:22:11 14° 281° (W) 12:26:24 435.465 / 435.565
DUCHIFAT 1 30 May 12:24:16 12:28:26 63° 259° (W) 12:32:37 145.980
BEESAT 2 30 May 12:27:50 12:30:54 21° 306° (NW) 12:33:59 435.950
BUGSAT 1 30 May 12:29:36 12:33:46 63° 75° (ENE) 12:37:53 437.445
UKube-1 30 May 12:39:49 12:43:36 29° 98° (E) 12:47:22 .
AISAT 30 May 12:48:15 12:52:38 64° 101° (E) 12:56:58 437.250
CUSAT 1 30 May 12:54:17 13:00:12 39° 287° (WNW) 13:07:18 437.405
50 SAT 30 May 12:57:50 13:01:34 77° 283° (WNW) 13:05:16 437.505
POPSAT HIP 1 30 May 13:07:34 13:10:25 18° 265° (W) 13:13:16 437.405
QB50P1 30 May 13:07:42 13:10:31 17° 265° (W) 13:13:19 145.935-145.965
QB50P2 30 May 13:11:35 13:13:59 15° 266° (W) 13:16:23 145.880/145.840
POLYITAN 1 30 May 13:14:10 13:16:28 14° 266° (W) 13:18:47 437.675
DANDE 30 May 13:16:34 13:21:51 50° 284° (WNW) 13:28:46 436.750
JAS-2 30 May 13:18:27 13:25:44 74° 74° (ENE) 13:33:34 435.910
AIST 2 30 May 13:23:49 13:27:55 83° 117° (ESE) 13:32:04 435.215
NANOSAT C BR1 30 May 13:26:01 13:27:15 11° 267° (W) 13:28:31 145.865
DX 1 30 May 13:32:04 13:36:15 48° 286° (WNW) 13:40:24 434.975-435.025
CUBEBUG 1 30 May 13:33:09 13:37:08 36° 287° (WNW) 13:41:05 437.445
ESTCUBE 1 30 May 13:39:59 13:43:29 22° 291° (WNW) 13:46:59 437.505/2401.250
SPROUT 30 May 13:45:33 13:49:47 72° 283° (WNW) 13:54:00 437.525
VELOX 1 30 May 13:48:40 13:52:20 26° 289° (WNW) 13:55:58 145.980
Cosmos 2491 30 May 13:55:13 13:58:06 12° 65° (ENE) 14:00:58 435.465 / 435.565
TISAT 1 30 May 13:58:23 14:02:14 36° 99° (E) 14:06:03 437.305
Oscar 19 30 May 13:59:59 14:05:11 82° 76° (ENE) 14:10:24 437.125/150
UKube-1 30 May 14:16:23 14:19:24 19° 291° (WNW) 14:22:25 .
